KZR215 UACC-LTAI

Flight info

Callsign KZR215
Flight time N/A
Altitude 36000
Route VETUB7G VETUB P574 OGANU N55 MASAV N161 GASBI/N0456F360 N161 LEYLA T916 SUBUT N996 PEMAN N161 INDUR UB374 ERZ UA4 SIV UA285 MUT UR55 KONAK KONA1R
Aircraft A321/M-SDE3FGHIRWY/LB1

Departure

Time 2026-05-09 06:49
Airport Nursultan Nazarbayev International Airport (UACC)

Arrival

Time N/A
Airport Antalya International Airport (LTAI)
Time Latitude Longitude Altitude Speed Heading
2026-05-09 06:27 51.02716 71.46376 1164 ft 0 kts 314°
2026-05-09 06:36 51.02705 71.46394 1162 ft 4 kts 314°
2026-05-09 06:36 51.02686 71.46424 1161 ft 4 kts 317°
2026-05-09 06:36 51.02666 71.46451 1162 ft 4 kts 332°
2026-05-09 06:36 51.02645 71.46461 1163 ft 4 kts 27°
2026-05-09 06:37 51.02640 71.46457 1162 ft 0 kts 46°
2026-05-09 06:40 51.02644 71.46463 1164 ft 1 kts 46°
2026-05-09 06:40 51.02651 71.46475 1162 ft 2 kts 46°
2026-05-09 06:41 51.02661 71.46492 1163 ft 2 kts 47°
2026-05-09 06:41 51.02673 71.46514 1164 ft 3 kts 47°
2026-05-09 06:41 51.02688 71.46541 1164 ft 3 kts 50°
2026-05-09 06:41 51.02702 71.46574 1163 ft 4 kts 63°
2026-05-09 06:42 51.02702 71.46613 1164 ft 4 kts 99°
2026-05-09 06:42 51.02691 71.46645 1164 ft 3 kts 127°
2026-05-09 06:42 51.02676 71.46676 1164 ft 4 kts 127°
2026-05-09 06:42 51.02662 71.46709 1164 ft 4 kts 122°
2026-05-09 06:43 51.02655 71.46762 1164 ft 6 kts 82°
2026-05-09 06:43 51.02679 71.46812 1164 ft 6 kts 45°
2026-05-09 06:43 51.02708 71.46861 1164 ft 6 kts 47°
2026-05-09 06:43 51.02739 71.46913 1164 ft 7 kts 46°
2026-05-09 06:44 51.02778 71.46974 1164 ft 8 kts 43°
2026-05-09 06:44 51.02824 71.47042 1164 ft 10 kts 45°
2026-05-09 06:44 51.02875 71.47122 1164 ft 11 kts 45°
2026-05-09 06:44 51.02932 71.47209 1164 ft 12 kts 44°
2026-05-09 06:45 51.02993 71.47306 1164 ft 13 kts 45°
2026-05-09 06:45 51.03059 71.47410 1164 ft 14 kts 45°
2026-05-09 06:45 51.03130 71.47521 1164 ft 15 kts 44°
2026-05-09 06:45 51.03205 71.47638 1164 ft 16 kts 44°
2026-05-09 06:46 51.03285 71.47761 1164 ft 17 kts 44°
2026-05-09 06:46 51.03363 71.47883 1164 ft 13 kts 44°
2026-05-09 06:46 51.03419 71.47983 1163 ft 12 kts 59°
2026-05-09 06:46 51.03432 71.48120 1164 ft 13 kts 89°
2026-05-09 06:47 51.03424 71.48266 1162 ft 14 kts 113°
2026-05-09 06:47 51.03352 71.48323 1165 ft 12 kts 200°
2026-05-09 06:47 51.03327 71.48292 1163 ft 0 kts 221°
2026-05-09 06:47 51.03326 71.48291 1163 ft 0 kts 221°
2026-05-09 06:48 51.03325 71.48290 1163 ft 1 kts 221°
2026-05-09 06:48 51.03216 71.48125 1164 ft 54 kts 224°
2026-05-09 06:48 51.02794 71.47461 1166 ft 115 kts 224°
2026-05-09 06:49 51.02094 71.46367 1165 ft 165 kts 224°
2026-05-09 06:49 51.01187 71.44962 1418 ft 187 kts 225°
2026-05-09 06:49 51.00290 71.43539 2348 ft 179 kts 232°
2026-05-09 06:49 50.99761 71.41821 3160 ft 177 kts 258°
2026-05-09 06:50 50.99515 71.39860 3573 ft 186 kts 254°
2026-05-09 06:50 50.99229 71.37742 3729 ft 205 kts 258°
2026-05-09 06:50 50.98978 71.35430 3870 ft 225 kts 259°
2026-05-09 06:50 50.98716 71.32864 4072 ft 244 kts 260°
2026-05-09 06:51 50.98447 71.30160 4600 ft 250 kts 260°
2026-05-09 06:51 50.98183 71.27417 5259 ft 252 kts 260°
2026-05-09 06:51 50.97920 71.24653 5895 ft 253 kts 260°
2026-05-09 06:51 50.97662 71.21912 6460 ft 256 kts 260°
2026-05-09 06:52 50.97399 71.19101 7030 ft 258 kts 260°
2026-05-09 06:52 50.97133 71.16280 7633 ft 259 kts 260°
2026-05-09 06:52 50.96862 71.13440 8249 ft 260 kts 259°
2026-05-09 06:52 50.96585 71.10590 8812 ft 262 kts 259°
2026-05-09 06:53 50.96307 71.07719 9364 ft 265 kts 259°
2026-05-09 06:53 50.96027 71.04811 9907 ft 267 kts 260°
2026-05-09 06:53 50.95743 71.01860 10244 ft 277 kts 259°
2026-05-09 06:53 50.95439 70.98749 10368 ft 295 kts 259°
2026-05-09 06:54 50.95111 70.95428 10495 ft 312 kts 259°
2026-05-09 06:54 50.94768 70.91938 10615 ft 328 kts 259°
2026-05-09 06:54 50.94416 70.88355 10947 ft 335 kts 260°
2026-05-09 06:54 50.94057 70.84674 11417 ft 338 kts 260°
2026-05-09 06:55 50.93693 70.80961 11912 ft 340 kts 259°
2026-05-09 06:55 50.93109 70.77325 12417 ft 341 kts 249°
2026-05-09 06:55 50.92060 70.73950 12930 ft 343 kts 238°
2026-05-09 06:55 50.90694 70.70849 13421 ft 344 kts 235°
2026-05-09 06:56 50.89306 70.67746 13890 ft 346 kts 235°
2026-05-09 06:56 50.87935 70.64670 14342 ft 347 kts 235°
2026-05-09 06:56 50.86540 70.61538 14784 ft 348 kts 235°
2026-05-09 06:56 50.85141 70.58396 15247 ft 349 kts 235°
2026-05-09 06:57 50.83739 70.55248 15700 ft 351 kts 235°
2026-05-09 06:57 50.82328 70.52083 16148 ft 352 kts 235°
2026-05-09 06:57 50.80906 70.48901 16591 ft 354 kts 235°
2026-05-09 06:57 50.79482 70.45721 17023 ft 355 kts 235°
2026-05-09 06:58 50.78046 70.42521 17444 ft 356 kts 235°
2026-05-09 06:58 50.76628 70.39368 17846 ft 357 kts 235°
2026-05-09 06:58 50.75184 70.36158 18245 ft 358 kts 235°
2026-05-09 06:58 50.73733 70.32932 18596 ft 360 kts 235°
2026-05-09 06:59 50.72281 70.29704 18940 ft 361 kts 235°
2026-05-09 06:59 50.70820 70.26462 19286 ft 362 kts 235°
2026-05-09 06:59 50.69380 70.23259 19641 ft 363 kts 236°
2026-05-09 06:59 50.68169 70.19770 19969 ft 365 kts 246°
2026-05-09 07:00 50.67285 70.15993 20307 ft 366 kts 249°
2026-05-09 07:00 50.66424 70.12188 20646 ft 368 kts 249°
2026-05-09 07:00 50.65561 70.08383 20995 ft 369 kts 249°
2026-05-09 07:00 50.64693 70.04571 21333 ft 370 kts 248°
2026-05-09 07:01 50.63818 70.00751 21658 ft 372 kts 248°
2026-05-09 07:01 50.62935 69.96911 21998 ft 373 kts 248°
2026-05-09 07:01 50.62049 69.93064 22325 ft 374 kts 248°
2026-05-09 07:01 50.61168 69.89253 22644 ft 375 kts 248°
2026-05-09 07:02 50.60271 69.85377 22959 ft 377 kts 248°
2026-05-09 07:02 50.59371 69.81484 23264 ft 379 kts 248°
2026-05-09 07:02 50.58465 69.77575 23545 ft 380 kts 248°
2026-05-09 07:02 50.57556 69.73660 23816 ft 381 kts 248°
2026-05-09 07:03 50.56644 69.69737 24072 ft 382 kts 248°
2026-05-09 07:03 50.55731 69.65821 24333 ft 384 kts 248°
2026-05-09 07:03 50.54807 69.61872 24597 ft 385 kts 248°
2026-05-09 07:03 50.53879 69.57914 24860 ft 386 kts 248°
2026-05-09 07:04 50.52950 69.53961 25118 ft 387 kts 248°
2026-05-09 07:04 50.52025 69.50034 25381 ft 388 kts 248°
2026-05-09 07:04 50.51087 69.46050 25640 ft 388 kts 248°
2026-05-09 07:04 50.50148 69.42056 25895 ft 390 kts 248°
2026-05-09 07:05 50.49204 69.38043 26144 ft 391 kts 248°
2026-05-09 07:05 50.48257 69.34034 26387 ft 392 kts 248°
2026-05-09 07:05 50.47304 69.30015 26636 ft 393 kts 248°
2026-05-09 07:05 50.46351 69.25998 26873 ft 393 kts 248°
2026-05-09 07:06 50.45394 69.21964 27108 ft 394 kts 248°
2026-05-09 07:06 50.44445 69.17981 27336 ft 395 kts 248°
2026-05-09 07:06 50.43477 69.13928 27563 ft 396 kts 248°
2026-05-09 07:06 50.42505 69.09876 27780 ft 397 kts 248°
2026-05-09 07:07 50.41528 69.05809 27980 ft 398 kts 248°
2026-05-09 07:07 50.40550 69.01744 28215 ft 397 kts 248°
2026-05-09 07:07 50.39576 68.97694 28498 ft 396 kts 248°
2026-05-09 07:07 50.38605 68.93656 28761 ft 395 kts 248°
2026-05-09 07:08 50.37639 68.89643 29025 ft 393 kts 248°
2026-05-09 07:08 50.36671 68.85632 29290 ft 392 kts 248°
2026-05-09 07:08 50.35715 68.81689 29543 ft 392 kts 248°
2026-05-09 07:08 50.34747 68.77712 29792 ft 391 kts 248°
2026-05-09 07:09 50.33774 68.73731 30013 ft 390 kts 248°
2026-05-09 07:09 50.32806 68.69771 30197 ft 389 kts 248°
2026-05-09 07:09 50.31838 68.65808 30355 ft 390 kts 248°
2026-05-09 07:09 50.30870 68.61836 30511 ft 390 kts 248°
2026-05-09 07:10 50.29901 68.57871 30679 ft 390 kts 248°
2026-05-09 07:10 50.28939 68.53952 30840 ft 390 kts 248°
2026-05-09 07:10 50.27959 68.49974 31010 ft 390 kts 248°
2026-05-09 07:10 50.26981 68.46003 31164 ft 390 kts 248°
2026-05-09 07:11 50.26019 68.42101 31333 ft 390 kts 248°
2026-05-09 07:11 50.25039 68.38144 31493 ft 389 kts 248°
2026-05-09 07:11 50.24053 68.34194 31652 ft 389 kts 248°
2026-05-09 07:11 50.23069 68.30247 31816 ft 389 kts 248°
2026-05-09 07:12 50.22107 68.26339 31981 ft 389 kts 249°
2026-05-09 07:12 50.21196 68.22354 32136 ft 389 kts 250°
2026-05-09 07:12 50.20331 68.18334 32288 ft 389 kts 250°
2026-05-09 07:12 50.19492 68.14322 32454 ft 389 kts 250°
2026-05-09 07:13 50.18662 68.10343 32612 ft 389 kts 250°
2026-05-09 07:13 50.17807 68.06287 32773 ft 389 kts 250°
2026-05-09 07:13 50.16956 68.02334 32902 ft 389 kts 250°
2026-05-09 07:13 50.16086 67.98350 33047 ft 389 kts 250°
2026-05-09 07:14 50.15206 67.94348 33179 ft 389 kts 250°
2026-05-09 07:14 50.14327 67.90367 33315 ft 389 kts 250°
2026-05-09 07:14 50.13442 67.86358 33451 ft 389 kts 250°
2026-05-09 07:14 50.12559 67.82360 33581 ft 389 kts 250°
2026-05-09 07:15 50.11686 67.78410 33720 ft 389 kts 250°
2026-05-09 07:15 50.10803 67.74428 33848 ft 389 kts 250°
2026-05-09 07:15 50.09918 67.70447 33967 ft 389 kts 250°
2026-05-09 07:15 50.09031 67.66461 34071 ft 388 kts 250°
2026-05-09 07:16 50.07557 67.59856 34270 ft 388 kts 250°
2026-05-09 07:16 50.06670 67.55881 34380 ft 388 kts 250°
2026-05-09 07:16 50.05784 67.51901 34506 ft 388 kts 250°
2026-05-09 07:17 50.04898 67.47931 34614 ft 388 kts 250°
2026-05-09 07:17 50.04019 67.44014 34721 ft 388 kts 249°
2026-05-09 07:17 50.03127 67.40059 34852 ft 388 kts 249°
2026-05-09 07:17 50.02232 67.36099 34962 ft 388 kts 249°
2026-05-09 07:18 50.01337 67.32151 35084 ft 387 kts 249°
2026-05-09 07:18 50.00440 67.28183 35203 ft 387 kts 249°
2026-05-09 07:18 49.99553 67.24262 35320 ft 387 kts 249°
2026-05-09 07:18 49.98654 67.20308 35444 ft 386 kts 249°
2026-05-09 07:19 49.97758 67.16379 35564 ft 385 kts 249°
2026-05-09 07:19 49.96859 67.12467 35713 ft 383 kts 248°
2026-05-09 07:19 49.94844 67.04838 35816 ft 385 kts 245°
2026-05-09 07:20 49.92614 66.97213 35816 ft 390 kts 245°
2026-05-09 07:20 49.90357 66.89494 35816 ft 394 kts 245°
2026-05-09 07:21 49.88127 66.81685 35819 ft 398 kts 245°
2026-05-09 07:21 49.85894 66.73833 35814 ft 401 kts 245°
2026-05-09 07:22 49.83631 66.65907 35817 ft 402 kts 245°
2026-05-09 07:22 49.81356 66.57969 35822 ft 403 kts 245°
2026-05-09 07:23 49.79083 66.50098 35824 ft 403 kts 245°
2026-05-09 07:23 49.76784 66.42170 35827 ft 403 kts 245°
2026-05-09 07:24 49.74478 66.34250 35829 ft 403 kts 245°
2026-05-09 07:24 49.72210 66.26309 35829 ft 404 kts 246°
2026-05-09 07:25 49.69981 66.18330 35833 ft 404 kts 246°
2026-05-09 07:25 49.67753 66.10387 35836 ft 405 kts 246°
2026-05-09 07:26 49.65491 66.02417 35837 ft 405 kts 245°
2026-05-09 07:26 49.63230 65.94502 35838 ft 405 kts 245°
2026-05-09 07:27 49.60948 65.86526 35838 ft 405 kts 245°
2026-05-09 07:27 49.58668 65.78569 35836 ft 406 kts 245°
2026-05-09 07:28 49.56397 65.70668 35837 ft 406 kts 245°
2026-05-09 07:28 49.54102 65.62699 35835 ft 406 kts 245°
2026-05-09 07:29 49.51800 65.54748 35837 ft 406 kts 245°
2026-05-09 07:29 49.49510 65.46863 35835 ft 406 kts 245°
2026-05-09 07:30 49.47195 65.38910 35836 ft 406 kts 245°
2026-05-09 07:30 49.44890 65.31019 35835 ft 406 kts 245°
2026-05-09 07:31 49.42562 65.23085 35834 ft 406 kts 245°
2026-05-09 07:31 49.40235 65.15169 35834 ft 406 kts 245°
2026-05-09 07:32 49.37914 65.07296 35840 ft 406 kts 245°
2026-05-09 07:32 49.35564 64.99381 35841 ft 406 kts 245°
2026-05-09 07:33 49.31955 64.87666 35839 ft 406 kts 243°
2026-05-09 07:34 49.29441 64.79900 35838 ft 406 kts 243°
2026-05-09 07:34 49.26953 64.72186 35835 ft 406 kts 243°
2026-05-09 07:35 49.24457 64.64427 35834 ft 406 kts 243°
2026-05-09 07:35 49.21964 64.56671 35834 ft 406 kts 243°
2026-05-09 07:36 49.19457 64.48900 35837 ft 406 kts 243°
2026-05-09 07:36 49.16956 64.41199 35835 ft 407 kts 243°
2026-05-09 07:37 49.14430 64.33437 35837 ft 407 kts 243°
2026-05-09 07:37 49.11898 64.25683 35843 ft 407 kts 243°
2026-05-09 07:38 49.09380 64.17994 35843 ft 408 kts 243°
2026-05-09 07:38 49.06843 64.10263 35846 ft 408 kts 243°
2026-05-09 07:39 49.04301 64.02531 35846 ft 408 kts 243°
2026-05-09 07:39 49.01753 63.94801 35851 ft 408 kts 243°
2026-05-09 07:40 48.99195 63.87083 35848 ft 408 kts 243°
2026-05-09 07:40 48.96632 63.79389 35851 ft 408 kts 243°
2026-05-09 07:41 48.94057 63.71686 35849 ft 408 kts 243°
2026-05-09 07:41 48.91500 63.64038 35849 ft 408 kts 243°
2026-05-09 07:42 48.88915 63.56344 35853 ft 408 kts 243°
2026-05-09 07:42 48.86437 63.48587 35853 ft 408 kts 245°
2026-05-09 07:43 48.84178 63.40669 35853 ft 409 kts 246°
2026-05-09 07:43 48.81944 63.32764 35856 ft 409 kts 246°
2026-05-09 07:44 48.79635 63.24835 35855 ft 409 kts 245°
2026-05-09 07:44 48.77310 63.17002 35854 ft 410 kts 245°
2026-05-09 07:45 48.74963 63.09106 35854 ft 410 kts 245°
2026-05-09 07:45 48.72618 63.01228 35861 ft 410 kts 245°
2026-05-09 07:46 48.70285 62.93382 35860 ft 410 kts 245°
2026-05-09 07:46 48.67932 62.85487 35862 ft 410 kts 245°
2026-05-09 07:47 48.65586 62.77663 35861 ft 411 kts 245°
2026-05-09 07:47 48.63208 62.69792 35863 ft 411 kts 245°
2026-05-09 07:48 48.60751 62.61962 35859 ft 412 kts 244°
2026-05-09 07:48 48.58172 62.54247 35863 ft 412 kts 243°
2026-05-09 07:49 48.55572 62.46522 35862 ft 413 kts 243°
2026-05-09 07:49 48.52989 62.38761 35864 ft 413 kts 243°
2026-05-09 07:50 48.50405 62.31003 35864 ft 413 kts 243°
2026-05-09 07:50 48.47827 62.23301 35866 ft 413 kts 243°
2026-05-09 07:51 48.45225 62.15559 35865 ft 413 kts 243°
2026-05-09 07:51 48.42617 62.07814 35864 ft 413 kts 243°
2026-05-09 07:52 48.40010 62.00097 35864 ft 413 kts 243°
2026-05-09 07:52 48.37415 61.92414 35874 ft 414 kts 243°
2026-05-09 07:53 48.34799 61.84673 35884 ft 414 kts 243°
2026-05-09 07:53 48.32183 61.77004 35865 ft 414 kts 243°
2026-05-09 07:54 48.29543 61.69302 35877 ft 414 kts 243°
2026-05-09 07:54 48.26916 61.61638 35866 ft 414 kts 243°
2026-05-09 07:55 48.24271 61.53939 35867 ft 415 kts 243°
2026-05-09 07:55 48.21620 61.46244 35875 ft 415 kts 243°
2026-05-09 07:56 48.18983 61.38596 35868 ft 415 kts 243°
2026-05-09 07:56 48.16315 61.30905 35872 ft 415 kts 243°
2026-05-09 07:57 48.13659 61.23276 35876 ft 416 kts 243°
2026-05-09 07:57 48.10976 61.15584 35875 ft 416 kts 243°
2026-05-09 07:58 48.08282 61.07911 35874 ft 416 kts 243°
2026-05-09 07:58 48.05599 61.00267 35876 ft 416 kts 243°
2026-05-09 07:59 48.02904 60.92591 35877 ft 416 kts 243°
2026-05-09 07:59 48.00226 60.84968 35873 ft 417 kts 243°
2026-05-09 08:00 47.97519 60.77308 35881 ft 417 kts 243°
2026-05-09 08:00 47.94786 60.69635 35884 ft 417 kts 243°
2026-05-09 08:01 47.92076 60.62026 35873 ft 417 kts 243°
2026-05-09 08:01 47.89344 60.54381 35876 ft 418 kts 243°
2026-05-09 08:02 47.86618 60.46777 35889 ft 418 kts 242°
2026-05-09 08:02 47.83870 60.39128 35886 ft 418 kts 242°
2026-05-09 08:03 47.81584 60.32777 35891 ft 418 kts 242°
2026-05-09 08:03 47.78829 60.25137 35886 ft 418 kts 242°
2026-05-09 08:04 47.76063 60.17510 35886 ft 418 kts 242°
2026-05-09 08:04 47.73308 60.09932 35890 ft 418 kts 242°
2026-05-09 08:05 47.70540 60.02314 35900 ft 419 kts 242°
2026-05-09 08:05 47.67763 59.94701 35895 ft 419 kts 242°
2026-05-09 08:06 47.64977 59.87088 35894 ft 419 kts 242°
2026-05-09 08:06 47.62199 59.79533 35897 ft 420 kts 242°
2026-05-09 08:07 47.59394 59.71925 35901 ft 420 kts 242°
2026-05-09 08:07 47.56582 59.64307 35894 ft 420 kts 242°
2026-05-09 08:08 47.53787 59.56757 35899 ft 420 kts 242°
2026-05-09 08:08 47.50963 59.49148 35899 ft 421 kts 242°
2026-05-09 08:09 47.48145 59.41618 35900 ft 421 kts 242°
2026-05-09 08:09 47.45308 59.34030 35904 ft 421 kts 242°
2026-05-09 08:10 47.42466 59.26446 35909 ft 421 kts 242°
2026-05-09 08:10 47.39636 59.18915 35910 ft 422 kts 241°
2026-05-09 08:11 47.36771 59.11330 35912 ft 422 kts 241°
2026-05-09 08:11 47.33912 59.03763 35914 ft 422 kts 241°
2026-05-09 08:12 47.29625 58.92454 35916 ft 423 kts 241°
2026-05-09 08:12 47.26741 58.84884 35922 ft 423 kts 241°
2026-05-09 08:13 47.23874 58.77370 35922 ft 423 kts 241°
2026-05-09 08:13 47.20989 58.69813 35928 ft 423 kts 241°
2026-05-09 08:14 47.18103 58.62317 35928 ft 423 kts 241°
2026-05-09 08:14 47.15190 58.54782 35934 ft 423 kts 241°
2026-05-09 08:15 47.12293 58.47275 35933 ft 424 kts 241°
2026-05-09 08:15 47.09379 58.39729 35935 ft 424 kts 241°
2026-05-09 08:16 47.06463 58.32194 35937 ft 424 kts 240°
2026-05-09 08:16 47.03548 58.24734 35939 ft 424 kts 240°
2026-05-09 08:17 47.00613 58.17222 35941 ft 424 kts 240°
2026-05-09 08:17 46.97677 58.09714 35947 ft 424 kts 240°
2026-05-09 08:18 46.94750 58.02253 35948 ft 425 kts 240°
2026-05-09 08:18 46.91796 57.94757 35950 ft 425 kts 240°
2026-05-09 08:19 46.88838 57.87253 35956 ft 425 kts 240°
2026-05-09 08:19 46.85887 57.79804 35952 ft 425 kts 240°
2026-05-09 08:20 46.82910 57.72321 35955 ft 425 kts 240°
2026-05-09 08:20 46.79941 57.64850 35954 ft 425 kts 240°
2026-05-09 08:21 46.76983 57.57415 35957 ft 425 kts 240°
2026-05-09 08:21 46.73994 57.49959 35957 ft 426 kts 240°
2026-05-09 08:22 46.71011 57.42538 35957 ft 426 kts 240°
2026-05-09 08:22 46.67997 57.35070 35958 ft 426 kts 240°
2026-05-09 08:23 46.64989 57.27616 35959 ft 427 kts 240°
2026-05-09 08:23 46.61997 57.20207 35966 ft 427 kts 240°
2026-05-09 08:24 46.58982 57.12743 35965 ft 427 kts 240°
2026-05-09 08:24 46.55966 57.05334 35965 ft 427 kts 239°
2026-05-09 08:25 46.52931 56.97908 35969 ft 427 kts 239°
2026-05-09 08:25 46.49879 56.90465 35971 ft 428 kts 239°
2026-05-09 08:26 46.46139 56.83836 35970 ft 429 kts 222°
2026-05-09 08:26 46.41590 56.78180 35970 ft 430 kts 222°
2026-05-09 08:27 46.37033 56.72536 35974 ft 430 kts 222°
2026-05-09 08:27 46.32487 56.66906 35976 ft 430 kts 222°
2026-05-09 08:28 46.27967 56.61312 35979 ft 430 kts 222°
2026-05-09 08:28 46.23413 56.55698 35985 ft 430 kts 222°
2026-05-09 08:29 46.18858 56.50096 35985 ft 430 kts 222°
2026-05-09 08:29 46.14292 56.44498 35988 ft 430 kts 221°
2026-05-09 08:30 46.09749 56.38939 35992 ft 430 kts 221°
2026-05-09 08:30 46.05184 56.33370 35991 ft 430 kts 221°
2026-05-09 08:31 46.00618 56.27803 35993 ft 430 kts 221°
2026-05-09 08:31 45.96048 56.22239 35993 ft 430 kts 221°
2026-05-09 08:32 45.91502 56.16731 35995 ft 430 kts 221°
2026-05-09 08:33 45.84636 56.08422 36001 ft 429 kts 221°
2026-05-09 08:33 45.80092 56.02932 36005 ft 429 kts 221°
2026-05-09 08:34 45.75497 55.97401 36006 ft 429 kts 221°
2026-05-09 08:34 45.70928 55.91914 36006 ft 429 kts 221°
2026-05-09 08:35 45.66369 55.86457 36007 ft 429 kts 221°
2026-05-09 08:35 45.61790 55.80970 36013 ft 428 kts 221°
2026-05-09 08:36 45.57212 55.75499 36007 ft 428 kts 221°
2026-05-09 08:36 45.52669 55.70097 36011 ft 428 kts 221°
2026-05-09 08:37 45.48086 55.64644 36012 ft 428 kts 221°
2026-05-09 08:37 45.43507 55.59219 36015 ft 427 kts 221°
2026-05-09 08:38 45.38958 55.53847 36013 ft 427 kts 221°
2026-05-09 08:38 45.34377 55.48440 36019 ft 427 kts 221°
2026-05-09 08:39 45.29795 55.43039 36018 ft 427 kts 220°
2026-05-09 08:39 45.25251 55.37698 36022 ft 427 kts 220°
2026-05-09 08:40 45.20665 55.32323 36024 ft 426 kts 220°
2026-05-09 08:40 45.16079 55.26965 36026 ft 426 kts 220°
2026-05-09 08:41 45.11500 55.21622 36025 ft 426 kts 220°
2026-05-09 08:41 45.06971 55.16287 36027 ft 426 kts 222°
2026-05-09 08:42 45.02586 55.10631 36029 ft 426 kts 224°
2026-05-09 08:42 44.98278 55.04878 36034 ft 426 kts 224°
2026-05-09 08:43 44.93936 54.99172 36036 ft 426 kts 223°
2026-05-09 08:43 44.89586 54.93567 36037 ft 426 kts 223°
2026-05-09 08:44 44.85194 54.87927 36037 ft 426 kts 223°
2026-05-09 08:44 44.80811 54.82289 36039 ft 425 kts 223°
2026-05-09 08:45 44.76462 54.76708 36039 ft 425 kts 223°
2026-05-09 08:45 44.72084 54.71110 36041 ft 425 kts 223°
2026-05-09 08:46 44.67692 54.65506 36044 ft 425 kts 224°
2026-05-09 08:46 44.63962 54.59089 36038 ft 424 kts 235°
2026-05-09 08:47 44.60611 54.52319 36043 ft 425 kts 235°
2026-05-09 08:47 44.57216 54.45515 36045 ft 425 kts 234°
2026-05-09 08:48 44.53831 54.38743 36046 ft 425 kts 234°
2026-05-09 08:48 44.50428 54.31939 36045 ft 426 kts 234°
2026-05-09 08:49 44.47569 54.26252 36050 ft 426 kts 234°
2026-05-09 08:49 44.44170 54.19494 36058 ft 427 kts 234°
2026-05-09 08:50 44.40746 54.12700 36061 ft 427 kts 234°
2026-05-09 08:50 44.37313 54.05906 36062 ft 427 kts 234°
2026-05-09 08:51 44.33905 53.99160 36061 ft 427 kts 234°
2026-05-09 08:51 44.30463 53.92371 36064 ft 428 kts 234°
2026-05-09 08:52 44.27031 53.85626 36069 ft 428 kts 234°
2026-05-09 08:52 44.23577 53.78848 36067 ft 428 kts 234°
2026-05-09 08:53 44.20136 53.72105 36070 ft 428 kts 234°
2026-05-09 08:53 44.16667 53.65339 36074 ft 429 kts 234°
2026-05-09 08:54 44.13191 53.58579 36072 ft 429 kts 234°
2026-05-09 08:54 44.09732 53.51857 36069 ft 429 kts 234°
2026-05-09 08:55 44.06246 53.45089 36074 ft 429 kts 234°
2026-05-09 08:55 44.02761 53.38340 36074 ft 430 kts 234°
2026-05-09 08:56 43.99258 53.31585 36075 ft 430 kts 234°
2026-05-09 08:56 43.95771 53.24866 36076 ft 431 kts 234°
2026-05-09 08:57 43.92263 53.18125 36075 ft 431 kts 234°
2026-05-09 08:57 43.88739 53.11398 36078 ft 431 kts 233°
2026-05-09 08:58 43.85205 53.04661 36078 ft 431 kts 233°
2026-05-09 08:58 43.81694 52.97970 36075 ft 432 kts 233°
2026-05-09 08:59 43.78164 52.91234 36082 ft 432 kts 233°
2026-05-09 08:59 43.74621 52.84502 36080 ft 432 kts 233°
2026-05-09 09:00 43.71086 52.77819 36088 ft 433 kts 233°
2026-05-09 09:00 43.67518 52.71090 36091 ft 433 kts 233°
2026-05-09 09:01 43.63963 52.64411 36089 ft 433 kts 233°
2026-05-09 09:01 43.60380 52.57705 36097 ft 434 kts 233°
2026-05-09 09:02 43.56803 52.51005 36106 ft 434 kts 233°
2026-05-09 09:02 43.53210 52.44296 36107 ft 434 kts 233°
2026-05-09 09:03 43.49629 52.37645 36107 ft 434 kts 233°
2026-05-09 09:03 43.46017 52.30952 36105 ft 435 kts 233°
2026-05-09 09:04 43.42424 52.24307 36108 ft 435 kts 233°
2026-05-09 09:04 43.38811 52.17620 36112 ft 435 kts 233°
2026-05-09 09:05 43.35184 52.10920 36115 ft 436 kts 233°
2026-05-09 09:05 43.31550 52.04234 36118 ft 436 kts 233°
2026-05-09 09:06 43.27925 51.97590 36116 ft 437 kts 233°
2026-05-09 09:06 43.24275 51.90913 36120 ft 437 kts 233°
2026-05-09 09:07 43.20617 51.84227 36122 ft 438 kts 233°
2026-05-09 09:07 43.16970 51.77572 36124 ft 438 kts 233°
2026-05-09 09:08 43.13298 51.70895 36128 ft 439 kts 232°
2026-05-09 09:08 43.09606 51.64206 36129 ft 439 kts 232°
2026-05-09 09:09 43.05938 51.57576 36125 ft 439 kts 232°
2026-05-09 09:09 43.02244 51.50898 36128 ft 440 kts 232°
2026-05-09 09:10 42.98558 51.44254 36129 ft 440 kts 232°
2026-05-09 09:10 42.94850 51.37592 36127 ft 441 kts 232°
2026-05-09 09:11 42.91133 51.30917 36134 ft 441 kts 232°
2026-05-09 09:11 42.87412 51.24247 36134 ft 441 kts 232°
2026-05-09 09:12 42.83707 51.17629 36131 ft 442 kts 232°
2026-05-09 09:12 42.79974 51.10970 36137 ft 442 kts 232°
2026-05-09 09:13 42.76231 51.04312 36139 ft 443 kts 232°
2026-05-09 09:13 42.72484 50.97660 36143 ft 443 kts 232°
2026-05-09 09:14 42.68722 50.91011 36141 ft 443 kts 232°
2026-05-09 09:14 42.64960 50.84371 36141 ft 443 kts 232°
2026-05-09 09:15 42.61213 50.77767 36143 ft 443 kts 232°
2026-05-09 09:15 42.57437 50.71126 36146 ft 444 kts 232°
2026-05-09 09:16 42.53654 50.64484 36149 ft 444 kts 232°
2026-05-09 09:16 42.48003 50.54568 36146 ft 444 kts 232°
2026-05-09 09:17 42.44210 50.47950 36146 ft 444 kts 232°
2026-05-09 09:17 42.40495 50.41252 36148 ft 444 kts 234°
2026-05-09 09:18 42.36969 50.34453 36144 ft 444 kts 235°
2026-05-09 09:18 42.33412 50.27611 36147 ft 444 kts 234°
2026-05-09 09:19 42.29806 50.20798 36146 ft 444 kts 234°
2026-05-09 09:19 42.26183 50.14020 36140 ft 444 kts 234°
2026-05-09 09:20 42.22576 50.07273 36145 ft 445 kts 234°
2026-05-09 09:20 42.18976 50.00538 36145 ft 445 kts 234°
2026-05-09 09:21 42.15357 49.93766 36148 ft 445 kts 234°
2026-05-09 09:21 42.11722 49.87003 36146 ft 445 kts 234°
2026-05-09 09:22 42.08094 49.80255 36146 ft 445 kts 234°
2026-05-09 09:22 42.04448 49.73495 36145 ft 445 kts 234°
2026-05-09 09:23 42.00824 49.66796 36148 ft 445 kts 234°
2026-05-09 09:23 41.97174 49.60064 36147 ft 445 kts 234°
2026-05-09 09:24 41.93518 49.53339 36148 ft 445 kts 234°
2026-05-09 09:24 41.89862 49.46616 36150 ft 445 kts 234°
2026-05-09 09:25 41.86229 49.39954 36152 ft 445 kts 234°
2026-05-09 09:25 41.82558 49.33249 36153 ft 445 kts 234°
2026-05-09 09:26 41.78944 49.26492 36154 ft 445 kts 236°
2026-05-09 09:26 41.75522 49.19573 36152 ft 445 kts 237°
2026-05-09 09:27 41.72161 49.12655 36156 ft 445 kts 237°
2026-05-09 09:27 41.68735 49.05730 36158 ft 446 kts 237°
2026-05-09 09:28 41.65290 48.98864 36155 ft 446 kts 237°
2026-05-09 09:28 41.61815 48.91974 36158 ft 446 kts 237°
2026-05-09 09:29 41.58340 48.85091 36162 ft 447 kts 237°
2026-05-09 09:29 41.54864 48.78193 36163 ft 447 kts 237°
2026-05-09 09:30 41.51381 48.71375 36164 ft 447 kts 235°
2026-05-09 09:30 41.47677 48.64685 36170 ft 448 kts 233°
2026-05-09 09:31 41.43886 48.58075 36173 ft 448 kts 233°
2026-05-09 09:32 41.38315 48.48095 36180 ft 448 kts 235°
2026-05-09 09:32 41.34698 48.41368 36190 ft 449 kts 235°
2026-05-09 09:33 41.31042 48.34611 36204 ft 449 kts 235°
2026-05-09 09:33 41.27378 48.27913 36220 ft 449 kts 235°
2026-05-09 09:34 41.23685 48.21193 36225 ft 450 kts 235°
2026-05-09 09:34 41.20610 48.15615 36232 ft 449 kts 235°
2026-05-09 09:36 41.09655 47.90898 36225 ft 445 kts 258°
2026-05-09 09:36 41.08966 47.86949 36220 ft 445 kts 258°
2026-05-09 09:37 41.07551 47.78942 36212 ft 446 kts 258°
2026-05-09 09:37 41.06122 47.70932 36202 ft 446 kts 257°
2026-05-09 09:38 41.04696 47.62969 36202 ft 446 kts 257°
2026-05-09 09:38 41.03257 47.54959 36206 ft 447 kts 257°
2026-05-09 09:39 41.01811 47.46937 36212 ft 447 kts 257°
2026-05-09 09:39 41.00355 47.38917 36218 ft 447 kts 257°
2026-05-09 09:40 40.98896 47.30904 36222 ft 448 kts 257°
2026-05-09 09:40 40.97434 47.22900 36217 ft 448 kts 258°
2026-05-09 09:41 40.95976 47.14925 36214 ft 448 kts 258°
2026-05-09 09:41 40.94502 47.06905 36203 ft 448 kts 258°
2026-05-09 09:42 40.93029 46.98943 36207 ft 448 kts 257°
2026-05-09 09:42 40.91540 46.90949 36208 ft 448 kts 257°
2026-05-09 09:43 40.90039 46.82945 36202 ft 448 kts 256°
2026-05-09 09:43 40.87976 46.75144 36196 ft 449 kts 251°
2026-05-09 09:44 40.85855 46.67429 36190 ft 449 kts 251°
2026-05-09 09:44 40.83720 46.59675 36187 ft 449 kts 251°
2026-05-09 09:45 40.81577 46.51912 36188 ft 449 kts 251°
2026-05-09 09:45 40.79440 46.44207 36189 ft 449 kts 251°
2026-05-09 09:46 40.77279 46.36457 36183 ft 449 kts 251°
2026-05-09 09:46 40.74869 46.28908 36187 ft 450 kts 241°
2026-05-09 09:47 40.71266 46.22113 36182 ft 452 kts 236°
2026-05-09 09:47 40.67555 46.15398 36185 ft 452 kts 236°
2026-05-09 09:48 40.63883 46.08733 36184 ft 452 kts 236°
2026-05-09 09:48 40.60173 46.02027 36195 ft 452 kts 236°
2026-05-09 09:49 40.56487 45.95383 36201 ft 452 kts 236°
2026-05-09 09:49 40.52773 45.88700 36212 ft 451 kts 236°
2026-05-09 09:50 40.49078 45.82062 36217 ft 451 kts 236°
2026-05-09 09:50 40.45357 45.75406 36223 ft 451 kts 236°
2026-05-09 09:51 40.41639 45.68752 36228 ft 451 kts 237°
2026-05-09 09:51 40.38883 45.61514 36227 ft 445 kts 255°
2026-05-09 09:52 40.37677 45.53590 36230 ft 442 kts 262°
2026-05-09 09:52 40.36614 45.45634 36231 ft 442 kts 262°
2026-05-09 09:53 40.35528 45.37696 36238 ft 442 kts 261°
2026-05-09 09:53 40.34440 45.29801 36237 ft 441 kts 261°
2026-05-09 09:54 40.33348 45.21869 36239 ft 441 kts 262°
2026-05-09 09:54 40.32264 45.14007 36239 ft 440 kts 261°
2026-05-09 09:55 40.31164 45.06110 36241 ft 439 kts 261°
2026-05-09 09:55 40.30071 44.98254 36247 ft 439 kts 261°
2026-05-09 09:56 40.28970 44.90384 36232 ft 438 kts 261°
2026-05-09 09:56 40.27864 44.82541 36238 ft 437 kts 261°
2026-05-09 09:57 40.26764 44.74759 36225 ft 436 kts 261°
2026-05-09 09:57 40.25647 44.66948 36226 ft 436 kts 261°
2026-05-09 09:58 40.24527 44.59153 36224 ft 434 kts 261°
2026-05-09 09:58 40.23443 44.51423 36221 ft 433 kts 262°
2026-05-09 09:59 40.22391 44.43641 36220 ft 432 kts 262°
2026-05-09 09:59 40.21347 44.35900 36218 ft 431 kts 262°
2026-05-09 10:00 40.20286 44.28199 36214 ft 431 kts 262°
2026-05-09 10:00 40.19215 44.20494 36214 ft 430 kts 262°
2026-05-09 10:01 40.18142 44.12820 36164 ft 431 kts 261°
2026-05-09 10:01 40.17059 44.05094 36200 ft 430 kts 262°
2026-05-09 10:02 40.15969 43.97391 36222 ft 430 kts 262°
2026-05-09 10:02 40.14874 43.89717 36216 ft 429 kts 262°
2026-05-09 10:03 40.13789 43.82100 36219 ft 429 kts 262°
2026-05-09 10:03 40.12697 43.74442 36221 ft 428 kts 262°
2026-05-09 10:04 40.11607 43.66771 36226 ft 427 kts 265°
2026-05-09 10:04 40.11155 43.59090 36236 ft 426 kts 268°
2026-05-09 10:05 40.10752 43.51351 36255 ft 426 kts 268°
2026-05-09 10:05 40.10334 43.43610 36272 ft 426 kts 268°
2026-05-09 10:06 40.09907 43.35936 36282 ft 426 kts 268°
2026-05-09 10:06 40.09478 43.28219 36288 ft 426 kts 268°
2026-05-09 10:07 40.09047 43.20481 36294 ft 426 kts 268°
2026-05-09 10:07 40.08610 43.12807 36294 ft 426 kts 268°
2026-05-09 10:08 40.08166 43.05089 36296 ft 426 kts 268°
2026-05-09 10:08 40.07713 42.97381 36290 ft 426 kts 267°
2026-05-09 10:09 40.07256 42.89705 36293 ft 426 kts 267°
2026-05-09 10:09 40.06805 42.82002 36290 ft 425 kts 267°
2026-05-09 10:10 40.06345 42.74293 36292 ft 424 kts 267°
2026-05-09 10:10 40.05886 42.66646 36294 ft 425 kts 267°
2026-05-09 10:11 40.05414 42.58947 36290 ft 424 kts 267°
2026-05-09 10:11 40.04931 42.51257 36285 ft 424 kts 267°
2026-05-09 10:12 40.04452 42.43634 36284 ft 424 kts 267°
2026-05-09 10:12 40.03951 42.35908 36280 ft 424 kts 266°
2026-05-09 10:13 40.03415 42.28238 36282 ft 424 kts 266°
2026-05-09 10:13 40.02885 42.20597 36274 ft 424 kts 267°
2026-05-09 10:14 40.02358 42.12922 36279 ft 425 kts 266°
2026-05-09 10:14 40.01815 42.05232 36275 ft 425 kts 266°
2026-05-09 10:15 40.01271 41.97601 36277 ft 425 kts 266°
2026-05-09 10:15 40.00719 41.89911 36272 ft 425 kts 266°
2026-05-09 10:16 40.00162 41.82256 36275 ft 425 kts 266°
2026-05-09 10:16 39.99594 41.74563 36267 ft 425 kts 266°
2026-05-09 10:17 39.99044 41.66881 36271 ft 425 kts 267°
2026-05-09 10:17 39.98503 41.59194 36268 ft 426 kts 266°
2026-05-09 10:18 39.97955 41.51541 36270 ft 426 kts 266°
2026-05-09 10:18 39.97389 41.43847 36269 ft 426 kts 266°
2026-05-09 10:19 39.96813 41.36139 36271 ft 426 kts 266°
2026-05-09 10:19 39.96239 41.28456 36265 ft 426 kts 266°
2026-05-09 10:20 39.95683 41.20799 36268 ft 425 kts 269°
2026-05-09 10:20 39.95659 41.14357 36266 ft 424 kts 271°
2026-05-09 10:21 39.95664 41.06722 36267 ft 424 kts 271°
2026-05-09 10:21 39.95666 40.99031 36265 ft 424 kts 271°
2026-05-09 10:22 39.95666 40.91322 36263 ft 425 kts 271°
2026-05-09 10:22 39.95654 40.83661 36259 ft 425 kts 271°
2026-05-09 10:23 39.95636 40.75946 36257 ft 425 kts 271°
2026-05-09 10:23 39.95610 40.68223 36250 ft 425 kts 271°
2026-05-09 10:24 39.95583 40.60560 36249 ft 425 kts 271°
2026-05-09 10:24 39.95554 40.52841 36242 ft 425 kts 271°
2026-05-09 10:25 39.95518 40.45118 36245 ft 426 kts 271°
2026-05-09 10:25 39.95475 40.37387 36237 ft 425 kts 271°
2026-05-09 10:26 39.95430 40.29709 36238 ft 426 kts 271°
2026-05-09 10:26 39.95378 40.21965 36231 ft 426 kts 271°
2026-05-09 10:27 39.95329 40.14266 36232 ft 427 kts 271°
2026-05-09 10:27 39.95275 40.06527 36227 ft 427 kts 271°
2026-05-09 10:28 39.95200 39.98787 36227 ft 427 kts 270°
2026-05-09 10:28 39.95128 39.91085 36227 ft 427 kts 270°
2026-05-09 10:29 39.95052 39.83335 36225 ft 428 kts 270°
2026-05-09 10:29 39.94959 39.75559 36225 ft 428 kts 270°
2026-05-09 10:30 39.94862 39.67783 36229 ft 429 kts 270°
2026-05-09 10:30 39.94770 39.60054 36225 ft 429 kts 270°
2026-05-09 10:31 39.94669 39.52267 36230 ft 429 kts 270°
2026-05-09 10:31 39.94567 39.44519 36227 ft 429 kts 270°